Temp
10 10 10 10 10 10 10 10 10 10 10 10 10 10 9 9 10 10 10 10 10 9 9 9 9 9 9 9 9 9 9 9 9 9 9 9 9 9 9 9 9 9
11 10 10 10 10 10 10 10 10 10 10 10 10 10 10 9 10 10 10 10 10 10 10 9 9 9 9 9 9 9 9 9 9 9 9 9 9 9 9 9 9 9
11 11 11 10 10 10 10 10 10 10 10 10 10 10 10 10 10 10 10 10 10 10 10 10 9 9 9 9 9 9 9 9 9 9 9 9 9 9 9 9 9 9
11 11 11 11 10 10 10 10 10 10 10 10 10 10 10 10 10 10 10 10 10 10 10 10 10 9 9 9 9 9 9 9 9 9 9 9 9 9 9 9 9 9
11 11 11 11 11 10 10 10 10 10 10 10 10 10 10 9 10 10 10 10 10 10 10 10 10 10 10 9 9 9 9 9 9 9 9 9 9 9 9 9 9 9
11 11 11 11 11 10 10 10 10 10 10 10 10 10 10 9 9 10 10 10 10 10 10 10 10 10 10 10 9 9 9 9 9 9 9 9 9 9 9 9 9 9
11 11 11 11 11 11 11 10 10 10 10 10 10 10 10 10 10 10 10 10 10 10 10 10 10 10 10 10 10 9 9 9 9 9 9 9 9 9 9 9 10 10
11 11 11 11 11 11 11 10 10 10 10 10 10 10 10 10 10 10 10 10 10 10 10 10 10 10 10 10 10 9 9 9 9 9 10 10 10 10 10 10 10 10
11 11 11 11 11 11 11 11 10 10 10 10 10 10 10 10 10 10 10 10 10 10 10 10 10 9 9 10 9 9 9 9 9 9 9 10 10 10 10 10 10 10
11 11 11 11 11 11 11 11 10 10 10 10 10 10 10 10 10 10 10 10 10 10 10 10 10 10 9 9 9 9 9 9 9 9 9 9 10 10 10 10 10 10
11 11 11 11 11 11 11 11 11 10 10 10 10 10 10 10 10 10 10 10 10 10 10 10 10 10 10 10 10 10 9 9 9 9 9 9 10 10 10 10 10 10
10 11 11 11 11 11 10 10 11 10 10 10 10 10 10 10 10 10 10 10 10 10 10 10 10 10 10 10 10 10 10 10 10 10 10 10 10 10 10 10 10 10
10 10 11 11 11 11 10 10 10 10 10 10 10 10 10 10 10 10 10 10 10 10 10 10 10 10 10 10 10 10 10 10 10 10 10 10 10 10 10 10 10 10
10 10 10 10 10 10 10 10 10 10 10 10 10 10 10 10 10 10 10 10 10 10 10 10 10 10 10 10 10 10 10 10 10 10 10 10 10 10 10 10 10 10
10 10 10 10 10 10 10 10 10 10 10 10 10 10 10 10 10 10 10 10 10 10 10 10 10 10 10 10 10 10 10 10 10 10 10 10 10 10 10 10 10 10
10 10 10 10 10 10 10 10 10 10 10 10 10 10 10 10 10 10 10 10 10 10 10 10 10 10 10 10 10 10 10 10 10 10 10 10 10 10 10 10 10 10
10 10 10 10 10 10 10 10 10 10 10 10 10 10 10 10 10 10 10 10 10 10 10 10 10 10 10 10 10 10 10 10 10 10 10 10 10 10 10 10 10 10
11 10 10 10 10 10 10 10 10 10 11 11 11 11 11 10 10 10 10 10 10 10 10 10 10 10 10 10 10 10 10 10 10 10 10 10 10 10 10 10 10 10
11 11 10 10 10 10 10 10 10 10 11 11 11 11 11 11 11 11 10 10 10 10 10 10 10 11 10 10 10 10 10 10 10 10 10 10 10 10 10 10 11 11
11 11 11 11 10 10 10 10 10 10 11 11 11 11 11 11 11 11 11 11 10 11 11 11 11 11 11 10 10 10 10 10 10 11 11 11 11 11 11 11 11 11
11 11 11 11 11 10 10 10 10 10 10 11 11 11 11 11 11 11 11 11 11 11 11 11 11 11 11 11 11 11 10 10 10 11 11 11 11 11 11 11 11 11
12 12 12 11 11 11 11 10 10 10 10 10 10 11 11 11 11 11 11 11 11 11 11 11 11 11 11 11 11 11 11 11 11 11 11 11 11 11 11 11 11 11
12 12 12 12 11 11 11 11 11 11 10 10 10 11 11 11 12 12 12 12 11 11 11 12 12 12 11 11 11 11 11 11 11 11 11 11 11 11 11 11 11 11
11 12 12 12 12 12 11 11 11 11 11 11 10 11 11 11 12 12 12 12 12 12 12 12 12 12 12 12 12 12 11 11 11 11 11 11 12 11 11 11 11 11
11 11 11 11 12 12 12 12 11 11 11 11 11 11 11 11 11 12 12 12 12 13 13 13 13 13 12 12 12 12 12 12 12 12 12 12 12 12 12 12 12 12
11 11 11 11 11 11 11 12 12 11 11 11 11 11 11 11 11 12 12 13 13 13 13 13 13 13 13 13 13 12 12 12 12 12 12 12 12 12 12 12 12 12
Height
3228 3230 3232 3234 3236 3237 3238 3240 3241 3243 3244 3246 3247 3248 3249 3250 3251 3252 3253 3254 3255 3255 3256 3256 3257 3258 3258 3259 3259 3259 3260 3260 3260 3261 3261 3261 3262 3263 3263 3263 3264 3264
3227 3229 3230 3232 3235 3236 3237 3239 3240 3242 3243 3244 3245 3246 3248 3249 3250 3251 3252 3253 3254 3255 3256 3256 3257 3257 3258 3259 3259 3260 3260 3260 3261 3261 3261 3262 3262 3263 3263 3263 3264 3264
3226 3227 3229 3231 3233 3235 3236 3237 3239 3240 3242 3243 3244 3246 3247 3248 3249 3250 3252 3253 3254 3255 3255 3256 3257 3257 3258 3258 3259 3260 3260 3261 3261 3261 3262 3262 3262 3263 3263 3263 3264 3264
3224 3226 3228 3230 3232 3233 3235 3236 3237 3239 3240 3242 3243 3245 3246 3247 3248 3249 3251 3252 3253 3254 3255 3255 3256 3257 3257 3258 3259 3260 3260 3261 3261 3262 3262 3262 3262 3263 3263 3263 3264 3264
3223 3225 3226 3228 3230 3231 3233 3235 3236 3237 3239 3240 3242 3243 3245 3246 3247 3248 3249 3251 3252 3253 3253 3254 3255 3256 3257 3257 3258 3259 3260 3261 3261 3261 3262 3262 3262 3263 3263 3263 3264 3264
3222 3223 3225 3226 3228 3230 3231 3233 3235 3236 3237 3239 3240 3242 3243 3244 3246 3247 3248 3249 3250 3251 3252 3253 3254 3255 3256 3257 3258 3258 3259 3260 3261 3261 3261 3262 3262 3262 3263 3263 3263 3263
3220 3222 3223 3225 3226 3228 3230 3232 3233 3234 3236 3237 3238 3240 3241 3243 3244 3246 3247 3248 3249 3250 3251 3252 3253 3254 3255 3256 3257 3257 3258 3259 3260 3260 3261 3261 3261 3262 3262 3262 3263 3263
3219 3220 3222 3223 3225 3226 3228 3230 3231 3233 3234 3235 3236 3238 3240 3241 3243 3244 3245 3247 3248 3249 3250 3251 3252 3253 3254 3255 3255 3256 3257 3258 3258 3259 3260 3260 3260 3261 3261 3261 3262 3262
3217 3219 3220 3221 3223 3225 3226 3228 3229 3231 3232 3233 3235 3236 3238 3239 3241 3242 3243 3245 3246 3247 3248 3249 3250 3251 3252 3253 3254 3255 3255 3256 3257 3258 3259 3259 3259 3260 3260 3261 3261 3261
3215 3217 3218 3219 3221 3223 3224 3226 3227 3229 3230 3231 3233 3234 3235 3237 3239 3240 3241 3243 3244 3246 3247 3248 3249 3250 3251 3252 3252 3253 3254 3254 3255 3256 3257 3258 3258 3259 3259 3259 3260 3260
3212 3214 3216 3217 3219 3221 3222 3224 3225 3226 3228 3229 3230 3232 3233 3235 3236 3238 3239 3241 3242 3244 3245 3246 3247 3248 3248 3249 3250 3251 3252 3252 3253 3254 3255 3256 3257 3257 3257 3258 3258 3259
3209 3211 3213 3215 3217 3219 3220 3222 3223 3224 3226 3227 3228 3230 3231 3232 3234 3235 3237 3239 3240 3242 3243 3244 3245 3246 3246 3247 3248 3249 3250 3250 3251 3252 3253 3254 3254 3255 3255 3256 3256 3257
3206 3208 3210 3213 3214 3216 3218 3219 3221 3222 3223 3225 3226 3227 3229 3230 3231 3233 3234 3236 3238 3239 3240 3242 3243 3243 3244 3245 3246 3247 3248 3248 3249 3250 3250 3251 3252 3252 3253 3253 3254 3255
3204 3206 3208 3210 3212 3213 3215 3217 3218 3219 3221 3222 3223 3225 3226 3227 3229 3230 3232 3233 3234 3236 3237 3239 3240 3241 3242 3243 3244 3244 3245 3246 3247 3248 3248 3249 3249 3250 3250 3251 3251 3252
3200 3202 3204 3206 3208 3210 3212 3214 3215 3217 3218 3219 3221 3222 3223 3225 3226 3227 3229 3230 3231 3233 3234 3235 3236 3237 3239 3240 3241 3242 3243 3244 3245 3245 3246 3246 3247 3247 3247 3248 3249 3250
3196 3199 3201 3203 3205 3206 3208 3210 3212 3213 3215 3216 3218 3219 3220 3222 3223 3224 3225 3227 3228 3229 3230 3231 3232 3234 3236 3237 3238 3239 3240 3241 3242 3243 3243 3244 3244 3244 3245 3245 3246 3247
3194 3195 3197 3199 3201 3203 3205 3207 3208 3210 3211 3213 3214 3216 3217 3219 3220 3221 3222 3224 3225 3226 3227 3228 3229 3231 3233 3234 3235 3236 3237 3238 3239 3239 3240 3240 3241 3241 3242 3243 3244 3244
3192 3193 3194 3196 3198 3200 3201 3203 3205 3206 3207 3209 3211 3213 3214 3215 3216 3218 3219 3221 3222 3223 3223 3224 3226 3228 3230 3231 3232 3233 3234 3235 3235 3236 3236 3237 3238 3238 3239 3240 3241 3241
3189 3191 3192 3193 3194 3196 3198 3199 3200 3202 3204 3206 3207 3209 3210 3212 3213 3215 3216 3217 3218 3219 3220 3221 3223 3225 3226 3227 3229 3230 3231 3231 3232 3232 3233 3234 3234 3235 3236 3237 3237 3238
3185 3187 3189 3190 3191 3192 3194 3195 3196 3198 3200 3202 3204 3205 3206 3208 3210 3211 3212 3214 3215 3216 3217 3218 3219 3221 3223 3224 3225 3226 3227 3228 3228 3228 3229 3230 3230 3232 3232 3233 3234 3235
3181 3183 3185 3187 3188 3189 3190 3191 3193 3195 3196 3198 3200 3201 3203 3205 3206 3207 3208 3210 3211 3213 3214 3215 3216 3218 3219 3221 3222 3223 3224 3224 3224 3225 3225 3226 3227 3228 3229 3230 3231 3231
3177 3179 3181 3183 3184 3185 3186 3188 3189 3191 3193 3195 3196 3197 3199 3201 3202 3203 3205 3207 3208 3209 3210 3211 3213 3215 3216 3217 3218 3219 3220 3220 3220 3221 3221 3222 3223 3224 3225 3226 3227 3228
3173 3175 3177 3179 3181 3182 3184 3185 3187 3188 3190 3191 3192 3194 3195 3197 3198 3200 3201 3203 3204 3205 3206 3208 3210 3211 3212 3213 3214 3215 3215 3216 3216 3217 3218 3218 3219 3221 3222 3223 3223 3224
3169 3171 3173 3174 3176 3178 3180 3182 3184 3185 3186 3187 3188 3190 3191 3193 3194 3196 3197 3198 3199 3201 3202 3204 3206 3207 3208 3209 3210 3211 3211 3212 3213 3213 3214 3214 3216 3217 3218 3219 3219 3220
3165 3166 3168 3170 3172 3174 3176 3178 3179 3180 3182 3183 3184 3185 3187 3188 3190 3191 3193 3194 3196 3197 3199 3200 3202 3203 3204 3205 3207 3207 3207 3208 3209 3209 3210 3211 3212 3213 3214 3215 3216 3217
3161 3162 3163 3165 3167 3169 3170 3172 3174 3175 3176 3178 3180 3182 3183 3185 3186 3187 3189 3190 3192 3193 3194 3196 3197 3199 3200 3201 3203 3203 3204 3205 3205 3205 3207 3208 3209 3210 3211 3211 3212 3213
Wind_Speed
16 16 17 17 17 17 17 16 15 14 13 12 11 10 10 9 8 8 7 7 6 5 4 4 4 4 4 5 4 4 4 4 5 5 5 5 5 5 5 4 4 4
16 16 17 18 18 18 18 17 16 14 13 13 12 12 11 10 9 9 8 8 7 6 6 5 4 4 4 4 4 4 4 3 4 4 5 5 4 4 4 4 3 4
17 16 16 18 18 18 18 18 17 16 15 14 14 13 13 12 11 10 9 9 8 8 7 6 5 5 4 4 4 4 4 4 4 4 4 3 3 3 3 3 2 2
18 16 16 17 18 19 19 19 19 18 16 15 15 14 14 13 12 12 11 10 9 8 8 7 6 6 5 4 4 4 4 4 4 4 4 3 3 2 2 3 3 2
18 17 17 17 18 20 20 20 19 18 18 17 17 16 15 14 14 13 12 11 10 9 8 8 7 7 6 5 5 5 5 5 5 5 5 4 4 3 3 3 3 3
18 18 18 18 18 19 20 20 19 19 19 19 19 18 17 16 15 14 13 12 12 10 9 8 8 8 8 7 6 6 6 6 6 6 6 6 6 5 5 4 4 5
19 19 19 19 19 19 20 21 20 20 20 20 20 20 19 18 16 15 14 13 13 12 11 10 9 9 9 8 7 7 7 7 7 7 7 7 7 7 7 7 6 6
21 20 20 19 19 19 20 21 21 21 21 22 21 21 20 19 18 17 16 15 15 14 13 12 11 10 9 8 8 7 8 8 8 8 8 9 9 9 9 9 8 8
23 22 21 21 20 20 20 20 21 21 22 22 22 22 21 20 20 19 18 17 16 16 15 14 13 12 11 9 9 8 8 9 9 9 9 10 10 10 11 11 10 10
25 24 23 22 22 21 20 20 21 22 22 22 22 23 23 22 21 21 20 19 18 17 17 16 15 14 13 12 11 10 10 10 10 10 10 11 11 11 12 12 12 12
26 26 25 24 23 22 21 21 21 22 22 23 23 23 23 23 23 23 22 21 20 19 18 18 17 17 16 15 14 13 13 12 12 12 12 12 12 12 13 13 13 13
26 27 27 26 25 24 23 23 23 23 23 23 23 23 23 23 23 24 24 23 22 21 20 20 19 19 18 17 17 16 16 15 15 14 14 14 13 14 14 15 15 15
24 26 27 27 26 26 25 25 24 24 24 24 24 24 24 24 23 23 24 24 24 23 23 22 21 21 21 20 20 19 18 18 17 17 17 16 16 16 16 17 16 16
24 24 25 26 27 27 27 27 26 26 26 25 25 25 25 25 24 24 24 24 25 25 25 25 24 24 24 23 22 21 21 20 19 19 19 18 18 18 19 19 19 18
24 24 24 25 26 27 28 28 28 28 28 28 27 27 27 26 26 25 25 25 25 26 26 26 27 27 26 25 24 24 23 22 22 21 21 21 20 21 21 21 21 20
24 24 24 25 26 27 28 29 29 29 29 29 29 29 29 28 28 28 27 27 27 27 27 28 28 28 26 25 25 25 24 24 24 23 23 23 23 23 23 23 22 22
24 25 25 26 27 27 28 29 30 30 30 30 30 30 30 30 30 30 30 29 29 29 29 30 29 28 27 26 26 26 25 26 26 25 25 25 25 25 25 24 24 24
24 25 25 26 26 27 27 28 29 30 30 31 31 31 31 31 32 32 32 31 31 31 31 31 31 30 29 28 28 27 27 27 27 27 27 27 27 27 27 26 25 25
23 24 25 26 26 27 27 28 29 30 30 30 30 31 31 32 32 32 33 33 33 32 32 32 32 31 30 30 30 29 29 29 30 29 29 29 29 29 28 28 27 27
23 24 24 25 25 26 27 28 29 29 30 30 30 31 31 31 32 32 32 33 33 33 32 33 32 31 30 31 31 31 31 31 32 32 31 31 31 30 30 30 29 29
24 25 25 25 26 27 28 29 29 30 30 30 31 31 31 30 31 32 32 32 32 32 32 32 31 29 29 30 30 30 31 32 33 32 32 32 32 31 31 30 30 30
25 25 26 26 27 28 29 30 30 30 30 30 31 31 30 30 30 31 31 31 31 31 32 31 29 28 29 29 29 29 31 32 33 32 32 32 31 30 30 30 30 31
24 26 26 27 27 28 29 29 30 30 30 31 31 31 31 30 30 29 29 29 30 31 31 30 28 28 29 28 28 29 30 32 32 32 32 32 31 30 30 30 31 31
24 25 26 27 27 28 28 28 28 29 30 31 31 32 32 31 30 29 29 29 29 29 29 29 28 28 28 28 28 29 30 30 30 31 32 32 31 30 30 31 31 31
27 26 26 27 27 27 27 28 28 28 29 31 32 33 33 32 32 31 29 29 28 28 28 28 27 27 27 28 28 28 29 30 30 30 31 30 29 29 30 30 30 30
29 29 28 28 27 28 28 29 29 30 30 31 31 32 33 34 34 32 30 29 28 28 28 28 27 26 27 27 27 28 29 29 30 30 29 28 28 28 29 29 29 30
Wind_Direction
205 199 197 202 208 209 208 206 201 198 198 200 198 190 186 190 190 183 181 181 182 189 192 190 192 188 178 169 162 163 166 156 148 145 138 132 132 132 129 125 125 130
208 203 197 199 205 208 210 209 206 203 202 202 202 198 194 194 194 192 190 190 193 199 203 204 202 196 186 179 174 177 183 175 163 159 151 144 144 140 136 134 132 132
209 206 199 198 203 208 211 211 210 207 205 205 205 204 202 200 199 199 199 198 199 203 208 213 216 212 199 188 185 189 200 200 188 186 178 165 164 156 147 146 150 147
209 208 203 199 202 207 211 213 212 210 208 207 208 208 208 207 204 205 206 205 204 205 210 214 220 224 220 208 203 207 217 218 212 213 209 197 195 193 174 171 179 182
209 209 207 204 203 207 211 213 214 213 210 209 210 210 211 211 209 209 210 210 209 207 209 214 219 225 228 225 222 221 226 228 226 230 232 225 222 220 211 203 202 201
210 210 211 208 206 208 212 215 215 215 213 211 212 213 213 213 213 212 213 213 212 210 209 212 216 221 225 226 226 228 231 231 227 228 233 235 233 233 232 227 222 218
211 212 213 213 210 208 211 215 216 216 216 215 215 216 217 217 217 216 216 216 216 213 210 210 213 216 220 223 225 230 234 237 234 229 229 232 233 235 238 237 235 235
212 213 214 216 215 212 211 214 218 218 218 218 219 219 220 221 221 221 220 220 220 218 214 211 212 215 217 218 220 226 232 238 241 239 236 235 234 235 237 238 240 243
215 214 215 216 217 215 213 214 217 219 221 222 222 223 224 225 225 225 225 223 223 222 219 215 213 214 216 215 217 222 226 231 236 239 240 240 240 241 242 242 240 242
219 217 217 217 218 218 216 215 217 219 221 223 224 226 227 227 228 228 228 227 224 224 224 221 217 217 218 219 221 224 225 228 232 234 237 238 239 242 244 247 247 247
222 221 220 219 219 220 218 218 219 219 221 223 225 227 229 229 229 230 231 230 227 225 225 225 222 221 222 222 225 228 229 231 232 234 237 238 240 241 243 245 247 249
222 223 223 222 222 222 221 221 221 221 222 223 225 227 228 230 231 231 232 231 230 227 226 226 225 225 226 226 228 230 231 232 233 235 237 239 242 244 246 247 247 248
220 223 225 226 226 225 224 224 224 224 223 223 225 227 228 229 230 231 233 233 233 231 229 229 229 229 229 229 230 233 234 234 234 235 236 237 240 244 247 249 250 250
217 222 226 228 229 229 227 226 225 226 226 225 225 227 228 230 230 230 232 233 235 235 234 234 234 233 233 232 233 235 236 237 237 236 237 237 238 241 245 248 251 252
212 218 222 225 228 230 230 229 228 227 228 227 227 227 228 230 231 231 231 231 232 235 236 238 238 237 236 236 237 238 239 240 241 240 240 239 238 240 243 245 249 252
210 213 217 221 226 229 230 231 231 230 229 229 229 229 229 230 231 233 233 232 232 232 234 237 239 240 239 239 239 240 240 241 242 242 243 242 242 242 243 244 247 249
213 213 214 218 222 227 230 232 233 232 231 231 231 231 231 231 232 233 234 234 234 233 234 236 238 240 240 240 241 241 241 242 243 243 244 244 244 245 245 246 247 248
218 217 216 217 220 224 228 231 233 233 233 233 233 233 233 233 234 234 235 236 236 236 236 237 239 240 239 240 240 241 242 243 244 244 244 246 247 248 249 249 249 250
219 219 219 219 220 223 225 228 231 232 233 234 235 236 236 236 236 237 237 237 238 239 239 240 241 241 240 240 240 240 241 242 244 245 246 247 249 250 251 251 252 253
220 220 220 221 222 223 224 225 228 230 233 235 237 238 239 239 239 240 240 240 241 242 242 243 244 242 241 242 242 241 241 242 244 245 246 247 248 249 250 252 253 255
222 222 222 222 223 224 225 225 227 228 231 235 238 240 241 241 241 242 242 243 243 244 245 245 246 246 245 245 244 244 244 244 245 246 247 247 247 248 249 250 252 254
223 224 225 226 226 227 227 227 228 229 231 234 238 240 242 242 242 243 244 245 245 245 246 247 247 247 247 247 247 247 247 247 248 249 249 249 249 249 249 250 251 253
227 225 226 227 228 229 230 230 230 230 231 233 236 240 243 244 244 245 245 245 246 246 247 247 247 247 247 247 247 247 248 248 249 250 251 252 252 252 252 251 251 253
234 230 228 228 228 229 229 229 230 230 231 232 235 238 241 243 245 246 245 244 245 247 248 248 247 246 246 246 246 246 247 248 249 250 251 252 253 253 253 253 252 253
240 237 235 232 229 227 227 226 226 225 227 229 232 235 239 242 243 244 245 245 246 247 248 248 247 246 246 246 245 246 247 248 248 249 250 252 253 254 254 254 254 254
246 244 243 241 235 229 225 224 223 223 223 225 228 233 237 241 244 245 246 246 248 249 248 248 248 246 247 247 246 246 247 247 248 249 250 251 253 254 255 256 256 256